Wheeler Army Airfield, HI

5:35 AM HST on February 14, 2016 (GMT -1000)
Wheeler Army Air Field

Weather History for PHHI - May, 2012

Change the Weather History Date:

Tuesday, May 8, 2012

  Actual Average Record
Temperature  
Mean Temperature 70 °F -  
Max Temperature 77 °F 76 °F - (-1)
Min Temperature 62 °F 63 °F - (-1)
Cooling Degree Days 4    
Growing Degree Days 20 (Base 50)    
Moisture  
Dew Point 59 °F    
Average Humidity 68    
Maximum Humidity 87    
Minimum Humidity 49    
Precipitation  
Precipitation 0.00 in - - ()
Sea Level Pressure  
Sea Level Pressure 30.12 in    
Wind  
Wind Speed 6 mph (NE)    
Max Wind Speed 16 mph    
Max Gust Speed 23 mph    
Visibility 10 miles    
Events Rain    
Averages and records for this station are not official NWS values.
T = Trace of Precipitation, MM = Missing Value Source: NWS Daily Summary

Daily Weather History Graph

Daily Weather History Graph

Search for Another Location

Airport or City:

Trip Planner

Search our weather history database for the weather conditions in past years. The results will help you decide how hot, cold, wet, or windy it might be!

Date:

Astronomy

May. 08, 2012 Rise Set
Actual Time 5:56 AM HST 7:00 PM HST
Civil Twilight 5:32 AM HST 7:24 PM HST
Nautical Twilight 5:05 AM HST 7:52 PM HST
Astronomical Twilight 4:36 AM HST 8:21 PM HST
Moon 10:13 PM HST (5/8) 8:27 AM HST (5/8)
Length of Visible Light 13h 51m
Length of Day
13h 04m
Waning Gibbous, 89% of the Moon is Illuminated
May 8
Waning Gibbous
May 12
Last Quarter
May 20
New
May 28
First Quarter
Jun 4
Full

Hourly Weather History & Observations

Time (HST) Temp. Dew Point Humidity Pressure Visibility Wind Dir Wind Speed Gust Speed Precip Events Conditions
12:55 AM 65.5 °F 59.2 °F 80% 30.12 in 10.0 mi Calm Calm - N/A   Partly Cloudy
1:55 AM 64.0 °F 59.4 °F 85% 30.11 in 10.0 mi NW 4.6 mph - N/A   Partly Cloudy
2:55 AM 62.8 °F 58.8 °F 87% 30.10 in 10.0 mi Calm Calm - N/A   Partly Cloudy
3:55 AM 65.5 °F 59.5 °F 81% 30.09 in 10.0 mi NW 3.5 mph - N/A   Scattered Clouds
4:55 AM 63.5 °F 59.2 °F 86% 30.11 in 10.0 mi Calm Calm - N/A   Overcast
5:55 AM 64.9 °F 59.9 °F 84% 30.12 in 10.0 mi NNW 4.6 mph - N/A   Overcast
6:55 AM 68.2 °F 60.8 °F 77% 30.13 in 10.0 mi NNW 5.8 mph - N/A   Mostly Cloudy
7:55 AM 71.4 °F 59.2 °F 65% 30.15 in 10.0 mi NE 6.9 mph - N/A   Clear
8:28 AM 73.4 °F 59.0 °F 61% 30.15 in 10.0 mi North 8.1 mph - N/A Rain Rain
8:35 AM 73.4 °F 59.0 °F 61% 30.18 in 10.0 mi NNE 11.5 mph - N/A   Clear
8:38 AM 73.4 °F 59.0 °F 61% 30.15 in 10.0 mi NE 13.8 mph - N/A   Clear
8:55 AM 73.9 °F 59.0 °F 59% 30.16 in 10.0 mi ENE 11.5 mph 18.4 mph 0.00 in   Partly Cloudy
9:55 AM 75.6 °F 58.8 °F 56% 30.15 in 10.0 mi NE 10.4 mph - N/A   Clear
10:55 AM 76.1 °F 58.1 °F 54% 30.15 in 10.0 mi East 12.7 mph 21.9 mph N/A   Scattered Clouds
11:55 AM 77.0 °F 59.2 °F 54% 30.14 in 10.0 mi NE 11.5 mph 23.0 mph N/A   Partly Cloudy
12:55 PM 77.4 °F 58.5 °F 52% 30.14 in 10.0 mi NE 10.4 mph 21.9 mph N/A   Overcast
1:55 PM 77.9 °F 57.6 °F 49% 30.12 in 10.0 mi ENE 13.8 mph - N/A   Partly Cloudy
2:55 PM 77.0 °F 58.5 °F 53% 30.11 in 10.0 mi NE 15.0 mph 19.6 mph N/A   Scattered Clouds
3:55 PM 75.2 °F 58.8 °F 57% 30.09 in 10.0 mi ENE 12.7 mph 19.6 mph N/A   Mostly Cloudy
4:55 PM 75.2 °F 57.2 °F 53% 30.09 in 10.0 mi ENE 13.8 mph - N/A   Scattered Clouds
5:55 PM 72.9 °F 58.1 °F 60% 30.09 in 10.0 mi NE 16.1 mph - N/A   Mostly Cloudy
6:55 PM 71.2 °F 58.5 °F 64% 30.10 in 10.0 mi NE 12.7 mph - N/A   Mostly Cloudy
7:55 PM 70.2 °F 59.0 °F 68% 30.11 in 10.0 mi NE 5.8 mph - N/A   Mostly Cloudy
8:55 PM 69.8 °F 58.5 °F 67% 30.12 in 10.0 mi NE 6.9 mph - N/A   Mostly Cloudy
9:55 PM 69.8 °F 58.6 °F 68% 30.12 in 10.0 mi Calm Calm - N/A   Overcast
10:26 PM 68.0 °F 59.0 °F 73% 30.12 in 10.0 mi Calm Calm - N/A   Light Drizzle
10:36 PM 68.0 °F 60.8 °F 78% 30.13 in 9.0 mi East 6.9 mph - N/A Rain Light Rain
10:42 PM 68.0 °F 60.8 °F 78% 30.12 in 10.0 mi ENE 5.8 mph - N/A   Light Drizzle
10:43 PM 68.0 °F 60.8 °F 78% 30.12 in 10.0 mi ENE 5.8 mph - N/A   Mostly Cloudy
10:55 PM 67.8 °F 61.9 °F 81% 30.12 in 10.0 mi ENE 3.5 mph - 0.00 in   Mostly Cloudy
11:54 PM 68.0 °F 60.8 °F 78% 30.11 in 10.0 mi Calm Calm - N/A   Light Drizzle
11:55 PM 67.6 °F 60.3 °F 77% 30.11 in 10.0 mi Calm Calm - 0.00 in   Light Drizzle